Crystal Symphony — C6MY5 — position and weather

sailwx.info

Track history (hours):
 
Tides and Currents Weather Stations Pressure Air Temp Water Temp Dewpoint Dewpoint Depression Visibility Wind Speed Wind Dir Waves Ship Positions

Crystal Symphony

Operator: Crystal Cruises

Last reported at 2014-Jul-24 16:15 UTC. Time now 2014-Jul-24 17:51 UTC.
Position N 60°15' E 005°09'.

Length 238 m; draft 8 m.

Type: Ship. MMSI: 309168000.

Date/timePositionNaut miles runAvg speedWind from/ knotsBaromVisibWave heightAir tempDewpointWater temp
2014-Jul-24 16:15N 60°15' E 005°09'811.8
2014-Jul-24 15:33N 60°23' E 005°12'4 3.6
2014-Jul-24 14:34N 60°24' E 005°19'0 0.0
2014-Jul-24 13:34N 60°24' E 005°19'0 0.0
2014-Jul-24 12:34N 60°24' E 005°19'0 0.0
2014-Jul-24 11:34N 60°24' E 005°19'0 0.0
2014-Jul-24 10:34N 60°24' E 005°19'0 0.0
2014-Jul-24 09:34N 60°24' E 005°19'0 0.0
2014-Jul-24 08:34N 60°24' E 005°19'0 0.0
2014-Jul-24 07:33N 60°24' E 005°19'0 0.0
2014-Jul-24 06:34N 60°24' E 005°19'0 0.0
2014-Jul-24 05:33N 60°24' E 005°19'6 5.7
2014-Jul-24 04:33N 60°24' E 005°07'218 8.9
2014-Jul-23 04:05N 63°54' E 007°17'17618.0
2014-Jul-22 18:20N 66°23' E 010°58'2317.9
2014-Jul-22 17:04N 66°42' E 011°28'918.0
2014-Jul-22 16:33N 66°50' E 011°40'1817.8
2014-Jul-22 15:33N 67°05' E 012°04'2118.1
2014-Jul-22 14:25N 67°22' E 012°32'2118.3
2014-Jul-22 13:17N 67°40' E 013°00'1317.6
2014-Jul-22 12:33N 67°51' E 013°17'261 6.9
2014-Jul-20 22:33N 70°31' E 022°57'1817.6
2014-Jul-20 21:33N 70°44' E 023°32'2 0.1
2014-Jul-19 23:04N 70°46' E 023°36'918.1
2014-Jul-19 22:33N 70°38' E 023°19'1818.1
2014-Jul-19 21:33N 70°27' E 022°37'  
2014-Jul-16 10:33N 58°41' E 005°00'3918.5
2014-Jul-16 08:26N 58°10' E 005°46'14318.2
2014-Jul-16 00:33N 57°50' E 010°14'1717.1
2014-Jul-15 23:33N 57°48' E 010°46'1817.7
2014-Jul-15 22:33N 57°38' E 011°13'1918.8
2014-Jul-15 21:33N 57°21' E 011°30'1918.7
2014-Jul-15 20:33N 57°04' E 011°42'1514.7
2014-Jul-15 19:33N 56°50' E 011°51'1919.1
2014-Jul-15 18:33N 56°32' E 011°60'1919.0
2014-Jul-15 17:33N 56°16' E 012°19'1616.2
2014-Jul-15 16:34N 56°04' E 012°38'1817.5
2014-Jul-15 15:33N 55°47' E 012°42'6 5.7
2014-Jul-15 14:33N 55°42' E 012°36'0 0.0
2014-Jul-15 13:34N 55°42' E 012°36'0 0.0
2014-Jul-15 12:33N 55°42' E 012°36'0 0.0
2014-Jul-15 11:33N 55°42' E 012°36'0 0.0
2014-Jul-15 10:34N 55°42' E 012°36'0 0.0
2014-Jul-15 09:34N 55°42' E 012°36'0 0.0
2014-Jul-15 08:34N 55°42' E 012°36'0 0.0
2014-Jul-15 07:33N 55°42' E 012°36'0 0.0
2014-Jul-15 06:33N 55°42' E 012°36'0 0.0
2014-Jul-15 05:34N 55°42' E 012°36'0 0.0
2014-Jul-15 04:34N 55°42' E 012°36'0 0.0
2014-Jul-15 03:33N 55°42' E 012°36'0 0.0
2014-Jul-15 02:34N 55°42' E 012°36'0 0.0
2014-Jul-15 01:34N 55°42' E 012°36'0 0.0
2014-Jul-15 00:34N 55°42' E 012°36'0 0.0
2014-Jul-14 23:34N 55°42' E 012°36'0 0.0
2014-Jul-14 22:33N 55°42' E 012°36'0 0.0
2014-Jul-14 21:34N 55°42' E 012°36'0 0.0
2014-Jul-14 20:34N 55°42' E 012°36'0 0.0
2014-Jul-14 19:34N 55°42' E 012°36'0 0.0
2014-Jul-14 18:33N 55°42' E 012°36'0 0.0
2014-Jul-14 17:34N 55°42' E 012°36'0 0.0
2014-Jul-14 16:33N 55°42' E 012°36'  
Track history (hours):
 
Tides and Currents Weather Stations Pressure Air Temp Water Temp Dewpoint Dewpoint Depression Visibility Wind Speed Wind Dir Waves Ship Positions

Crystal Symphony

Operator: Crystal Cruises

Last reported at 2014-Jul-24 16:15 UTC. Time now 2014-Jul-24 17:51 UTC.
Position N 60°15' E 005°09'.

Length 238 m; draft 8 m.

Type: Ship. MMSI: 309168000.

Date/timePositionNaut miles runAvg speedWind from/ knotsBaromVisibWave heightAir tempDewpointWater temp
2014-Jul-24 16:15N 60°15' E 005°09'811.8
2014-Jul-24 15:33N 60°23' E 005°12'4 3.6
2014-Jul-24 14:34N 60°24' E 005°19'0 0.0
2014-Jul-24 13:34N 60°24' E 005°19'0 0.0
2014-Jul-24 12:34N 60°24' E 005°19'0 0.0
2014-Jul-24 11:34N 60°24' E 005°19'0 0.0
2014-Jul-24 10:34N 60°24' E 005°19'0 0.0
2014-Jul-24 09:34N 60°24' E 005°19'0 0.0
2014-Jul-24 08:34N 60°24' E 005°19'0 0.0
2014-Jul-24 07:33N 60°24' E 005°19'0 0.0
2014-Jul-24 06:34N 60°24' E 005°19'0 0.0
2014-Jul-24 05:33N 60°24' E 005°19'6 5.7
2014-Jul-24 04:33N 60°24' E 005°07'218 8.9
2014-Jul-23 04:05N 63°54' E 007°17'17618.0
2014-Jul-22 18:20N 66°23' E 010°58'2317.9
2014-Jul-22 17:04N 66°42' E 011°28'918.0
2014-Jul-22 16:33N 66°50' E 011°40'1817.8
2014-Jul-22 15:33N 67°05' E 012°04'2118.1
2014-Jul-22 14:25N 67°22' E 012°32'2118.3
2014-Jul-22 13:17N 67°40' E 013°00'1317.6
2014-Jul-22 12:33N 67°51' E 013°17'261 6.9
2014-Jul-20 22:33N 70°31' E 022°57'1817.6
2014-Jul-20 21:33N 70°44' E 023°32'2 0.1
2014-Jul-19 23:04N 70°46' E 023°36'918.1
2014-Jul-19 22:33N 70°38' E 023°19'1818.1
2014-Jul-19 21:33N 70°27' E 022°37'  
2014-Jul-16 10:33N 58°41' E 005°00'3918.5
2014-Jul-16 08:26N 58°10' E 005°46'14318.2
2014-Jul-16 00:33N 57°50' E 010°14'1717.1
2014-Jul-15 23:33N 57°48' E 010°46'1817.7
2014-Jul-15 22:33N 57°38' E 011°13'1918.8
2014-Jul-15 21:33N 57°21' E 011°30'1918.7
2014-Jul-15 20:33N 57°04' E 011°42'1514.7
2014-Jul-15 19:33N 56°50' E 011°51'1919.1
2014-Jul-15 18:33N 56°32' E 011°60'1919.0
2014-Jul-15 17:33N 56°16' E 012°19'1616.2
2014-Jul-15 16:34N 56°04' E 012°38'1817.5
2014-Jul-15 15:33N 55°47' E 012°42'6 5.7
2014-Jul-15 14:33N 55°42' E 012°36'0 0.0
2014-Jul-15 13:34N 55°42' E 012°36'0 0.0
2014-Jul-15 12:33N 55°42' E 012°36'0 0.0
2014-Jul-15 11:33N 55°42' E 012°36'0 0.0
2014-Jul-15 10:34N 55°42' E 012°36'0 0.0
2014-Jul-15 09:34N 55°42' E 012°36'0 0.0
2014-Jul-15 08:34N 55°42' E 012°36'0 0.0
2014-Jul-15 07:33N 55°42' E 012°36'0 0.0
2014-Jul-15 06:33N 55°42' E 012°36'0 0.0
2014-Jul-15 05:34N 55°42' E 012°36'0 0.0
2014-Jul-15 04:34N 55°42' E 012°36'0 0.0
2014-Jul-15 03:33N 55°42' E 012°36'0 0.0
2014-Jul-15 02:34N 55°42' E 012°36'0 0.0
2014-Jul-15 01:34N 55°42' E 012°36'0 0.0
2014-Jul-15 00:34N 55°42' E 012°36'0 0.0
2014-Jul-14 23:34N 55°42' E 012°36'0 0.0
2014-Jul-14 22:33N 55°42' E 012°36'0 0.0
2014-Jul-14 21:34N 55°42' E 012°36'0 0.0
2014-Jul-14 20:34N 55°42' E 012°36'0 0.0
2014-Jul-14 19:34N 55°42' E 012°36'0 0.0
2014-Jul-14 18:33N 55°42' E 012°36'0 0.0
2014-Jul-14 17:34N 55°42' E 012°36'0 0.0
2014-Jul-14 16:33N 55°42' E 012°36'  

Dump ship's entire track history